Booneville, Arkansas, United States (72927)
Lat: 35.14N, Lon: 93.92W
Wx Zone: ARZ030
Local Info
Past Weather Observations for Thursday, July 24, 2014

NOTE: This archive is for the closest National Weather Service station to Booneville. Information may differ from the station used for current weather conditions.

Click here for Long-term Archive

Time Weather Temperature Dewpoint Humidity Pressure Winds Precip Visibility
23:53
Clear
75°F / 24°C 70°F / 21°C 83% 30.04 in
(1017 mb)
ESE 3.5 mph
(ESE 6 kph)
- 10SM
22:53
Clear
75°F / 24°C 70°F / 21°C 83% 30.04 in
(1017 mb)
ENE 3.5 mph
(ENE 6 kph)
- 10SM
21:53
Clear
77°F / 25°C 72°F / 22°C 83% 30.01 in
(1016 mb)
SE 3.5 mph
(SE 6 kph)
- 10SM
20:53
Clear
79°F / 26°C 72°F / 22°C 79% 30.01 in
(1016 mb)
E 4.6 mph
(E 7 kph)
- 10SM
19:53
Clear
81°F / 27°C 72°F / 22°C 74% 29.98 in
(1015 mb)
E 3.5 mph
(E 6 kph)
- 10SM
18:53
Clear
82°F / 28°C 72°F / 22°C 70% 29.98 in
(1015 mb)
E 5.8 mph
(E 9 kph)
- 10SM
17:53
Clear
84°F / 29°C 70°F / 21°C 62% 29.98 in
(1015 mb)
ESE 4.6 mph
(ESE 7 kph)
- 10SM
16:53
Partly Cloudy
86°F / 30°C 70°F / 21°C 59% 30.01 in
(1016 mb)
Variable 4.6 mph
(Variable 7 kph)
- 10SM
15:53
Mostly Cloudy
88°F / 31°C 72°F / 22°C 59% 30.04 in
(1017 mb)
ESE 6.9 mph
(ESE 11 kph)
- 10SM
14:53
Partly Cloudy
86°F / 30°C 72°F / 22°C 62% 30.04 in
(1017 mb)
E 5.8 mph
(E 9 kph)
- 10SM
14:01
Mostly Cloudy
84°F / 29°C 72°F / 22°C 66% 30.06 in
(1018 mb)
E 6.9 mph
(E 11 kph)
- 10SM
13:53
Mostly Cloudy
84°F / 29°C 72°F / 22°C 66% 30.06 in
(1018 mb)
Variable 3.5 mph
(Variable 6 kph)
- 10SM
12:53
Mostly Cloudy
84°F / 29°C 70°F / 21°C 62% 30.06 in
(1018 mb)
SE 8.1 mph
(SE 13 kph)
- 10SM
11:53
Mostly Cloudy
82°F / 28°C 70°F / 21°C 66% 30.09 in
(1019 mb)
E 6.9 mph
(E 11 kph)
- 10SM
10:53
Overcast
81°F / 27°C 70°F / 21°C 70% 30.09 in
(1019 mb)
E 10.4 mph
(E 17 kph)
- 10SM
09:53
Overcast
77°F / 25°C 68°F / 20°C 74% 30.09 in
(1019 mb)
SE 10.4 mph
(SE 17 kph)
- 10SM
08:53
Mostly Cloudy
75°F / 24°C 70°F / 21°C 83% 30.09 in
(1019 mb)
SE 12.7 mph
(SE 20 kph)
- 10SM
08:43
Partly Cloudy
75°F / 24°C 70°F / 21°C 83% 30.09 in
(1019 mb)
E 12.7 mph
(E 20 kph)
- 10SM
08:13
Mostly Cloudy
73°F / 23°C 70°F / 21°C 89% 30.09 in
(1019 mb)
E 9.2 mph
(E 15 kph)
- 10SM
07:53
Partly Cloudy
73°F / 23°C 70°F / 21°C 89% 30.09 in
(1019 mb)
ENE 5.8 mph
(ENE 9 kph)
- 10SM
07:25
Mostly Cloudy
72°F / 22°C 68°F / 20°C 88% 30.09 in
(1019 mb)
NE 6.9 mph
(NE 11 kph)
- 10SM
07:03
Partly Cloudy
72°F / 22°C 70°F / 21°C 94% 30.09 in
(1019 mb)
ENE 5.8 mph
(ENE 9 kph)
- 10SM
06:53
Clear
72°F / 22°C 68°F / 20°C 88% 30.09 in
(1019 mb)
ENE 4.6 mph
(ENE 7 kph)
- 10SM
05:53
Clear
Fog And Mist
68°F / 20°C 66°F / 19°C 94% 30.06 in
(1018 mb)
WNW 3.5 mph
(WNW 6 kph)
- 6SM
04:53
Clear
66°F / 19°C 66°F / 19°C 100% 30.04 in
(1017 mb)
SSW 3.5 mph
(SSW 6 kph)
- 8SM
04:27
Partly Cloudy
Fog And Mist
68°F / 20°C 66°F / 19°C 94% 30.04 in
(1017 mb)
SW 4.6 mph
(SW 7 kph)
- 6SM
03:53
Clear
68°F / 20°C 66°F / 19°C 94% 30.04 in
(1017 mb)
SSW 5.8 mph
(SSW 9 kph)
- 9SM
02:53
Clear
68°F / 20°C 66°F / 19°C 94% 30.04 in
(1017 mb)
SSW 3.5 mph
(SSW 6 kph)
- 10SM
01:53
Clear
70°F / 21°C 68°F / 20°C 94% 30.04 in
(1017 mb)
Calm - 9SM
00:53
Clear
70°F / 21°C 66°F / 19°C 88% 30.04 in
(1017 mb)
SSW 3.5 mph
(SSW 6 kph)
- 10SM
Time Weather Temperature Dewpoint Humidity Pressure Winds Precip Visibility


Weather for websites

WeatherForYou.com, LLC is not responsible for any damages or problems caused by this service. Current weather conditions are obtained from the closest station including government and personal stations which may have varying degrees of accuracy. Weather forecasts are derived from the NOAA NDFD. Like all things, this site belongs to Jesus Christ... He just trusts me to maintain it. If you have any questions or comments email webmaster@weatherforyou.com

Copyright © 2014, WeatherForYou.com LLC. All rights reserved.